Time,TemperatureF,DewpointF,PressureIn,WindDirection,WindDirectionDegrees,WindSpeedMPH,WindSpeedGustMPH,Humidity,HourlyPrecipIn,Conditions,Clouds,dailyrainin,SoftwareType,DateUTC
2013-05-18 00:00:00,69.8,63.3,29.96,West,271,0.0,0.0,80,0.00,,,0.00,Wunderground v.1.15,2013-05-18 04:00:00,
2013-05-18 00:01:00,69.8,63.3,29.96,West,271,0.0,0.0,80,0.00,,,0.00,Wunderground v.1.15,2013-05-18 04:01:00,
2013-05-18 00:02:00,69.8,63.3,29.96,West,271,0.0,0.0,80,0.00,,,0.00,Wunderground v.1.15,2013-05-18 04:02:00,
2013-05-18 00:04:00,69.8,63.7,29.96,West,271,0.0,0.0,81,0.00,,,0.00,Wunderground v.1.15,2013-05-18 04:04:00,
2013-05-18 00:06:00,69.8,63.7,29.96,West,271,0.0,1.0,81,0.00,,,0.00,Wunderground v.1.15,2013-05-18 04:06:00,
2013-05-18 00:09:00,69.6,63.5,29.96,West,271,0.0,1.0,81,0.00,,,0.00,Wunderground v.1.15,2013-05-18 04:09:00,
2013-05-18 00:14:00,69.6,63.9,29.96,West,271,0.0,1.0,82,0.00,,,0.00,Wunderground v.1.15,2013-05-18 04:14:00,
2013-05-18 00:19:00,69.6,63.9,29.96,West,271,0.0,1.0,82,0.00,,,0.00,Wunderground v.1.15,2013-05-18 04:19:00,
2013-05-18 00:24:00,69.4,63.7,29.96,West,271,0.0,1.0,82,0.00,,,0.00,Wunderground v.1.15,2013-05-18 04:24:00,
2013-05-18 00:30:00,69.4,64.0,29.97,West,269,0.0,3.0,83,0.00,,,0.00,Wunderground v.1.15,2013-05-18 04:30:00,
2013-05-18 00:35:00,69.3,63.9,29.97,West,269,0.0,3.0,83,0.00,,,0.00,Wunderground v.1.15,2013-05-18 04:35:00,
2013-05-18 00:40:00,69.3,64.3,29.97,West,269,0.0,3.0,84,0.00,,,0.00,Wunderground v.1.15,2013-05-18 04:40:00,
2013-05-18 00:45:00,69.1,64.1,29.97,West,269,0.0,0.0,84,0.00,,,0.00,Wunderground v.1.15,2013-05-18 04:45:00,
2013-05-18 00:51:00,69.1,64.1,29.97,West,269,0.0,1.0,84,0.00,,,0.00,Wunderground v.1.15,2013-05-18 04:51:00,
2013-05-18 00:56:00,68.9,63.9,29.97,West,269,0.0,0.0,84,0.00,,,0.00,Wunderground v.1.15,2013-05-18 04:56:00,
2013-05-18 01:01:00,68.9,64.2,29.97,West,269,0.0,0.0,85,0.00,,,0.00,Wunderground v.1.15,2013-05-18 05:01:00,
2013-05-18 01:06:00,68.8,64.1,29.97,West,269,0.0,1.0,85,0.00,,,0.00,Wunderground v.1.15,2013-05-18 05:06:00,
2013-05-18 01:11:00,68.6,63.9,29.97,West,269,0.0,1.0,85,0.00,,,0.00,Wunderground v.1.15,2013-05-18 05:11:00,
2013-05-18 01:16:00,68.6,63.9,29.97,West,269,0.0,0.0,85,0.00,,,0.00,Wunderground v.1.15,2013-05-18 05:16:00,
2013-05-18 01:21:00,68.4,64.0,29.97,West,269,0.0,0.0,86,0.00,,,0.00,Wunderground v.1.15,2013-05-18 05:21:00,
2013-05-18 01:26:00,68.4,64.0,29.97,West,269,0.0,0.0,86,0.00,,,0.00,Wunderground v.1.15,2013-05-18 05:26:00,
2013-05-18 01:31:00,68.3,63.9,29.96,West,269,0.0,0.0,86,0.00,,,0.00,Wunderground v.1.15,2013-05-18 05:31:00,
2013-05-18 01:36:00,68.3,63.9,29.96,West,269,0.0,0.0,86,0.00,,,0.00,Wunderground v.1.15,2013-05-18 05:36:00,
2013-05-18 01:41:00,68.1,63.8,29.96,West,269,0.0,0.0,86,0.00,,,0.00,Wunderground v.1.15,2013-05-18 05:41:00,
2013-05-18 01:47:00,67.8,63.5,29.96,West,269,0.0,0.0,86,0.00,,,0.00,Wunderground v.1.15,2013-05-18 05:47:00,
2013-05-18 01:52:00,67.6,63.6,29.96,West,269,0.0,0.0,87,0.00,,,0.00,Wunderground v.1.15,2013-05-18 05:52:00,
2013-05-18 01:57:00,67.3,63.3,29.96,West,269,0.0,0.0,87,0.00,,,0.00,Wunderground v.1.15,2013-05-18 05:57:00,
2013-05-18 02:02:00,67.1,63.4,29.95,West,269,0.0,0.0,88,0.00,,,0.00,Wunderground v.1.15,2013-05-18 06:02:00,
2013-05-18 02:07:00,67.1,63.4,29.95,West,269,0.0,0.0,88,0.00,,,0.00,Wunderground v.1.15,2013-05-18 06:07:00,
2013-05-18 02:13:00,66.9,63.2,29.95,West,269,0.0,0.0,88,0.00,,,0.00,Wunderground v.1.15,2013-05-18 06:13:00,
2013-05-18 02:19:00,66.8,63.5,29.95,West,269,0.0,0.0,89,0.00,,,0.00,Wunderground v.1.15,2013-05-18 06:19:00,
2013-05-18 02:24:00,66.6,63.3,29.95,West,269,0.0,0.0,89,0.00,,,0.00,Wunderground v.1.15,2013-05-18 06:24:00,
2013-05-18 02:29:00,66.6,63.3,29.95,West,269,0.0,0.0,89,0.00,,,0.00,Wunderground v.1.15,2013-05-18 06:29:00,
2013-05-18 02:34:00,66.4,63.4,29.95,West,269,0.0,0.0,90,0.00,,,0.00,Wunderground v.1.15,2013-05-18 06:34:00,
2013-05-18 02:39:00,66.4,63.4,29.95,West,269,0.0,0.0,90,0.00,,,0.00,Wunderground v.1.15,2013-05-18 06:39:00,
2013-05-18 02:45:00,66.3,63.3,29.95,West,269,0.0,0.0,90,0.00,,,0.00,Wunderground v.1.15,2013-05-18 06:45:00,
2013-05-18 02:50:00,66.1,63.1,29.95,West,269,0.0,0.0,90,0.00,,,0.00,Wunderground v.1.15,2013-05-18 06:50:00,
2013-05-18 02:55:00,66.0,63.0,29.95,West,269,0.0,0.0,90,0.00,,,0.00,Wunderground v.1.15,2013-05-18 06:55:00,
2013-05-18 03:00:00,65.8,62.8,29.95,West,269,0.0,0.0,90,0.00,,,0.00,Wunderground v.1.15,2013-05-18 07:00:00,
2013-05-18 03:05:00,65.8,62.8,29.95,West,269,0.0,0.0,90,0.00,,,0.00,Wunderground v.1.15,2013-05-18 07:05:00,
2013-05-18 03:10:00,65.6,62.6,29.95,West,269,0.0,0.0,90,0.00,,,0.00,Wunderground v.1.15,2013-05-18 07:10:00,
2013-05-18 03:15:00,65.6,62.9,29.95,West,269,0.0,0.0,91,0.00,,,0.00,Wunderground v.1.15,2013-05-18 07:15:00,
2013-05-18 03:20:00,65.5,62.8,29.95,West,269,0.0,0.0,91,0.00,,,0.00,Wunderground v.1.15,2013-05-18 07:20:00,
2013-05-18 03:26:00,65.5,62.8,29.95,West,269,0.0,0.0,91,0.00,,,0.00,Wunderground v.1.15,2013-05-18 07:26:00,
2013-05-18 03:31:00,65.5,62.8,29.95,West,269,0.0,0.0,91,0.00,,,0.00,Wunderground v.1.15,2013-05-18 07:31:00,
2013-05-18 03:37:00,65.3,62.6,29.95,West,269,0.0,0.0,91,0.00,,,0.00,Wunderground v.1.15,2013-05-18 07:37:00,
2013-05-18 03:42:00,65.2,62.5,29.95,West,269,0.0,0.0,91,0.00,,,0.00,Wunderground v.1.15,2013-05-18 07:42:00,
2013-05-18 03:47:00,65.2,62.5,29.95,West,269,0.0,0.0,91,0.00,,,0.00,Wunderground v.1.15,2013-05-18 07:47:00,
2013-05-18 03:52:00,65.2,62.5,29.95,West,269,0.0,0.0,91,0.00,,,0.00,Wunderground v.1.15,2013-05-18 07:52:00,
2013-05-18 03:57:00,65.0,62.6,29.95,West,269,0.0,0.0,92,0.00,,,0.00,Wunderground v.1.15,2013-05-18 07:57:00,
2013-05-18 04:02:00,65.0,62.6,29.95,West,269,0.0,0.0,92,0.00,,,0.00,Wunderground v.1.15,2013-05-18 08:02:00,
2013-05-18 04:08:00,65.2,62.8,29.95,West,269,0.0,0.0,92,0.00,,,0.00,Wunderground v.1.15,2013-05-18 08:08:00,
2013-05-18 04:13:00,65.2,62.8,29.95,West,269,0.0,0.0,92,0.00,,,0.00,Wunderground v.1.15,2013-05-18 08:13:00,
2013-05-18 04:18:00,65.2,62.8,29.95,West,269,0.0,0.0,92,0.00,,,0.00,Wunderground v.1.15,2013-05-18 08:18:00,
2013-05-18 04:23:00,65.2,63.1,29.95,West,269,0.0,0.0,93,0.00,,,0.00,Wunderground v.1.15,2013-05-18 08:23:00,
2013-05-18 04:28:00,65.2,63.1,29.95,West,269,0.0,0.0,93,0.00,,,0.00,Wunderground v.1.15,2013-05-18 08:28:00,
2013-05-18 04:33:00,65.2,63.1,29.95,West,269,0.0,0.0,93,0.00,,,0.00,Wunderground v.1.15,2013-05-18 08:33:00,
2013-05-18 04:38:00,65.2,63.1,29.95,West,269,0.0,0.0,93,0.00,,,0.00,Wunderground v.1.15,2013-05-18 08:38:00,
2013-05-18 04:43:00,65.3,63.2,29.95,West,269,0.0,0.0,93,0.00,,,0.00,Wunderground v.1.15,2013-05-18 08:43:00,
2013-05-18 04:48:00,65.3,63.2,29.95,West,269,0.0,0.0,93,0.00,,,0.00,Wunderground v.1.15,2013-05-18 08:48:00,
2013-05-18 04:53:00,65.3,63.2,29.95,West,269,0.0,0.0,93,0.00,,,0.00,Wunderground v.1.15,2013-05-18 08:53:00,
2013-05-18 04:59:00,65.5,63.7,29.95,West,269,0.0,0.0,94,0.00,,,0.00,Wunderground v.1.15,2013-05-18 08:59:00,
2013-05-18 05:04:00,65.5,63.7,29.95,West,269,0.0,0.0,94,0.00,,,0.00,Wunderground v.1.15,2013-05-18 09:04:00,
2013-05-18 05:09:00,65.6,63.8,29.95,West,269,0.0,0.0,94,0.00,,,0.00,Wunderground v.1.15,2013-05-18 09:09:00,
2013-05-18 05:15:00,65.8,64.0,29.95,West,269,0.0,0.0,94,0.00,,,0.00,Wunderground v.1.15,2013-05-18 09:15:00,
2013-05-18 05:20:00,65.8,64.0,29.95,West,269,0.0,0.0,94,0.00,,,0.00,Wunderground v.1.15,2013-05-18 09:20:00,
2013-05-18 05:25:00,65.8,64.0,29.95,West,269,0.0,0.0,94,0.00,,,0.00,Wunderground v.1.15,2013-05-18 09:25:00,
2013-05-18 05:30:00,66.0,64.2,29.95,West,269,0.0,0.0,94,0.00,,,0.00,Wunderground v.1.15,2013-05-18 09:30:00,
2013-05-18 05:35:00,66.0,64.2,29.95,West,269,0.0,0.0,94,0.00,,,0.00,Wunderground v.1.15,2013-05-18 09:35:00,
2013-05-18 05:40:00,66.0,64.2,29.95,West,269,0.0,0.0,94,0.00,,,0.00,Wunderground v.1.15,2013-05-18 09:40:00,
2013-05-18 05:46:00,65.8,64.0,29.95,West,269,0.0,0.0,94,0.00,,,0.00,Wunderground v.1.15,2013-05-18 09:46:00,
2013-05-18 05:51:00,65.8,64.0,29.95,West,269,0.0,0.0,94,0.00,,,0.00,Wunderground v.1.15,2013-05-18 09:51:00,
2013-05-18 05:57:00,66.0,64.2,29.95,West,269,0.0,0.0,94,0.00,,,0.00,Wunderground v.1.15,2013-05-18 09:57:00,
2013-05-18 06:02:00,66.0,63.9,29.97,West,269,0.0,0.0,93,0.00,,,0.00,Wunderground v.1.15,2013-05-18 10:02:00,
2013-05-18 06:08:00,66.0,64.2,29.97,West,269,0.0,0.0,94,0.00,,,0.00,Wunderground v.1.15,2013-05-18 10:08:00,
2013-05-18 06:13:00,66.0,64.2,29.97,West,269,0.0,0.0,94,0.00,,,0.00,Wunderground v.1.15,2013-05-18 10:13:00,
2013-05-18 06:18:00,66.0,64.2,29.97,West,269,0.0,0.0,94,0.00,,,0.00,Wunderground v.1.15,2013-05-18 10:18:00,
2013-05-18 06:23:00,66.0,64.2,29.97,West,269,0.0,0.0,94,0.00,,,0.00,Wunderground v.1.15,2013-05-18 10:23:00,
2013-05-18 06:28:00,66.0,64.2,29.97,West,269,0.0,0.0,94,0.00,,,0.00,Wunderground v.1.15,2013-05-18 10:28:00,
2013-05-18 06:33:00,66.0,64.2,29.97,West,269,0.0,0.0,94,0.00,,,0.00,Wunderground v.1.15,2013-05-18 10:33:00,
2013-05-18 06:39:00,65.8,64.0,29.97,West,269,0.0,0.0,94,0.00,,,0.00,Wunderground v.1.15,2013-05-18 10:39:00,
2013-05-18 06:44:00,65.8,64.0,29.98,West,269,0.0,0.0,94,0.00,,,0.00,Wunderground v.1.15,2013-05-18 10:44:00,
2013-05-18 06:50:00,65.8,64.0,29.98,West,269,0.0,0.0,94,0.00,,,0.00,Wunderground v.1.15,2013-05-18 10:50:00,
2013-05-18 06:55:00,65.8,64.0,29.98,West,269,0.0,0.0,94,0.00,,,0.00,Wunderground v.1.15,2013-05-18 10:55:00,
2013-05-18 07:00:00,65.8,64.0,29.98,West,269,0.0,0.0,94,0.00,,,0.00,Wunderground v.1.15,2013-05-18 11:00:00,
2013-05-18 07:05:00,65.8,64.0,29.98,West,269,0.0,0.0,94,0.00,,,0.00,Wunderground v.1.15,2013-05-18 11:05:00,
2013-05-18 07:10:00,65.8,64.0,29.98,West,269,0.0,0.0,94,0.00,,,0.00,Wunderground v.1.15,2013-05-18 11:10:00,
2013-05-18 07:15:00,66.0,64.5,29.98,West,269,0.0,0.0,95,0.00,,,0.00,Wunderground v.1.15,2013-05-18 11:15:00,
2013-05-18 07:21:00,66.1,64.6,29.98,West,269,0.0,0.0,95,0.00,,,0.00,Wunderground v.1.15,2013-05-18 11:21:00,
2013-05-18 07:27:00,66.3,64.8,29.98,West,269,0.0,0.0,95,0.00,,,0.00,Wunderground v.1.15,2013-05-18 11:27:00,
2013-05-18 07:32:00,66.4,64.9,29.99,West,269,0.0,0.0,95,0.00,,,0.00,Wunderground v.1.15,2013-05-18 11:32:00,
2013-05-18 07:37:00,66.8,65.3,29.99,West,269,0.0,0.0,95,0.00,,,0.00,Wunderground v.1.15,2013-05-18 11:37:00,
2013-05-18 07:42:00,67.1,65.6,29.99,West,269,0.0,0.0,95,0.00,,,0.00,Wunderground v.1.15,2013-05-18 11:42:00,
2013-05-18 07:47:00,67.6,66.4,30.00,West,269,0.0,0.0,96,0.00,,,0.00,Wunderground v.1.15,2013-05-18 11:47:00,
2013-05-18 07:52:00,68.1,66.9,30.00,West,269,0.0,0.0,96,0.00,,,0.00,Wunderground v.1.15,2013-05-18 11:52:00,
2013-05-18 07:57:00,68.6,67.4,30.00,West,269,0.0,0.0,96,0.00,,,0.00,Wunderground v.1.15,2013-05-18 11:57:00,
2013-05-18 08:03:00,69.3,68.1,30.00,West,269,0.0,0.0,96,0.00,,,0.00,Wunderground v.1.15,2013-05-18 12:03:00,
2013-05-18 08:09:00,69.8,68.6,30.00,West,269,0.0,0.0,96,0.00,,,0.00,Wunderground v.1.15,2013-05-18 12:09:00,
2013-05-18 08:14:00,70.3,68.8,30.00,West,269,0.0,0.0,95,0.00,,,0.00,Wunderground v.1.15,2013-05-18 12:14:00,
2013-05-18 08:19:00,70.6,68.8,30.00,West,269,0.0,0.0,94,0.00,,,0.00,Wunderground v.1.15,2013-05-18 12:19:00,
2013-05-18 08:24:00,70.9,68.8,30.00,West,269,0.0,0.0,93,0.00,,,0.00,Wunderground v.1.15,2013-05-18 12:24:00,
2013-05-18 08:29:00,71.5,69.4,30.00,West,269,0.0,0.0,93,0.00,,,0.00,Wunderground v.1.15,2013-05-18 12:29:00,
2013-05-18 08:34:00,71.8,69.3,30.00,West,269,0.0,0.0,92,0.00,,,0.00,Wunderground v.1.15,2013-05-18 12:34:00,
2013-05-18 08:39:00,72.3,69.5,30.00,West,262,0.0,3.0,91,0.00,,,0.00,Wunderground v.1.15,2013-05-18 12:39:00,
2013-05-18 08:45:00,73.0,69.6,30.01,West,261,0.0,0.0,89,0.00,,,0.00,Wunderground v.1.15,2013-05-18 12:45:00,
2013-05-18 08:51:00,73.9,69.8,30.01,SSW,198,0.0,3.0,87,0.00,,,0.00,Wunderground v.1.15,2013-05-18 12:51:00,
2013-05-18 08:56:00,74.4,69.9,30.01,SW,215,0.0,2.0,86,0.00,,,0.00,Wunderground v.1.15,2013-05-18 12:56:00,
2013-05-18 09:01:00,74.9,69.7,30.01,South,191,0.0,3.0,84,0.00,,,0.00,Wunderground v.1.15,2013-05-18 13:01:00,
2013-05-18 09:06:00,75.3,69.1,30.01,SSW,205,1.0,4.0,81,0.00,,,0.00,Wunderground v.1.15,2013-05-18 13:06:00,
2013-05-18 09:11:00,75.8,69.6,30.01,SSW,205,1.0,4.0,81,0.00,,,0.00,Wunderground v.1.15,2013-05-18 13:11:00,
2013-05-18 09:17:00,76.1,69.1,30.01,WSW,252,0.0,3.0,79,0.00,,,0.00,Wunderground v.1.15,2013-05-18 13:17:00,
2013-05-18 09:22:00,76.0,69.0,30.01,SW,223,0.0,0.0,79,0.00,,,0.00,Wunderground v.1.15,2013-05-18 13:22:00,
2013-05-18 09:27:00,76.0,68.6,30.01,West,281,1.0,3.0,78,0.00,,,0.00,Wunderground v.1.15,2013-05-18 13:27:00,
2013-05-18 09:32:00,75.6,68.3,30.02,SSE,168,2.0,2.0,78,0.00,,,0.00,Wunderground v.1.15,2013-05-18 13:32:00,
2013-05-18 09:37:00,75.3,67.6,30.02,SW,234,2.0,4.0,77,0.00,,,0.00,Wunderground v.1.15,2013-05-18 13:37:00,
2013-05-18 09:42:00,75.1,67.8,30.02,West,273,1.0,2.0,78,0.00,,,0.00,Wunderground v.1.15,2013-05-18 13:42:00,
2013-05-18 09:47:00,75.1,68.5,30.01,SW,236,1.0,4.0,80,0.00,,,0.00,Wunderground v.1.15,2013-05-18 13:47:00,
2013-05-18 09:52:00,75.4,68.4,30.01,South,174,1.0,1.0,79,0.00,,,0.00,Wunderground v.1.15,2013-05-18 13:52:00,
2013-05-18 09:57:00,76.1,68.7,30.01,South,180,1.0,4.0,78,0.00,,,0.00,Wunderground v.1.15,2013-05-18 13:57:00,
2013-05-18 10:02:00,76.8,69.4,30.01,South,183,1.0,1.0,78,0.00,,,0.00,Wunderground v.1.15,2013-05-18 14:02:00,
2013-05-18 10:08:00,77.0,69.2,30.01,SSW,201,1.0,2.0,77,0.00,,,0.00,Wunderground v.1.15,2013-05-18 14:08:00,
2013-05-18 10:13:00,77.2,69.4,30.01,SSW,200,1.0,1.0,77,0.00,,,0.00,Wunderground v.1.15,2013-05-18 14:13:00,
2013-05-18 10:18:00,77.6,69.8,30.01,SSW,201,0.0,4.0,77,0.00,,,0.00,Wunderground v.1.15,2013-05-18 14:18:00,
2013-05-18 10:23:00,77.9,69.7,30.01,SSW,201,0.0,0.0,76,0.00,,,0.00,Wunderground v.1.15,2013-05-18 14:23:00,
2013-05-18 10:28:00,77.9,67.7,30.01,West,275,1.0,3.0,71,0.00,,,0.00,Wunderground v.1.15,2013-05-18 14:28:00,
2013-05-18 10:33:00,78.1,68.3,30.01,SE,126,2.0,4.0,72,0.00,,,0.00,Wunderground v.1.15,2013-05-18 14:33:00,
2013-05-18 10:38:00,78.3,68.1,30.01,SE,140,1.0,4.0,71,0.00,,,0.00,Wunderground v.1.15,2013-05-18 14:38:00,
2013-05-18 10:43:00,78.5,68.7,30.01,SW,219,1.0,3.0,72,0.00,,,0.00,Wunderground v.1.15,2013-05-18 14:43:00,
2013-05-18 10:48:00,78.8,69.8,30.01,South,171,1.0,3.0,74,0.00,,,0.00,Wunderground v.1.15,2013-05-18 14:48:00,
2013-05-18 10:53:00,79.4,69.2,30.01,ESE,114,1.0,2.0,71,0.00,,,0.00,Wunderground v.1.15,2013-05-18 14:53:00,
2013-05-18 10:58:00,79.4,70.4,30.01,ESE,123,1.0,5.0,74,0.00,,,0.00,Wunderground v.1.15,2013-05-18 14:58:00,
2013-05-18 11:04:00,79.2,69.4,30.01,SSE,148,1.0,3.0,72,0.00,,,0.00,Wunderground v.1.15,2013-05-18 15:04:00,
2013-05-18 11:09:00,79.2,69.4,30.01,SSW,196,1.0,3.0,72,0.00,,,0.00,Wunderground v.1.15,2013-05-18 15:09:00,
2013-05-18 11:14:00,79.4,69.6,30.01,South,171,1.0,1.0,72,0.00,,,0.00,Wunderground v.1.15,2013-05-18 15:14:00,
2013-05-18 11:19:00,79.4,68.8,30.01,SE,140,1.0,4.0,70,0.00,,,0.00,Wunderground v.1.15,2013-05-18 15:19:00,
2013-05-18 11:24:00,79.6,69.0,30.01,ESE,118,1.0,4.0,70,0.00,,,0.00,Wunderground v.1.15,2013-05-18 15:24:00,
2013-05-18 11:29:00,79.6,68.1,30.01,SSW,209,2.0,5.0,68,0.00,,,0.00,Wunderground v.1.15,2013-05-18 15:29:00,
2013-05-18 11:34:00,79.8,69.1,30.01,SE,140,2.0,2.0,70,0.00,,,0.00,Wunderground v.1.15,2013-05-18 15:34:00,
2013-05-18 11:39:00,80.3,69.6,30.01,South,182,1.0,5.0,70,0.00,,,0.00,Wunderground v.1.15,2013-05-18 15:39:00,
2013-05-18 11:44:00,80.7,69.2,30.01,SE,136,1.0,1.0,68,0.00,,,0.00,Wunderground v.1.15,2013-05-18 15:44:00,
2013-05-18 11:50:00,81.2,69.2,30.01,ESE,104,1.0,2.0,67,0.00,,,0.00,Wunderground v.1.15,2013-05-18 15:50:00,
2013-05-18 11:55:00,81.2,68.3,30.01,SE,141,2.0,4.0,65,0.00,,,0.00,Wunderground v.1.15,2013-05-18 15:55:00,
2013-05-18 12:00:00,81.2,68.3,30.01,SE,124,3.0,5.0,65,0.00,,,0.00,Wunderground v.1.15,2013-05-18 16:00:00,
2013-05-18 12:06:00,80.5,69.0,30.01,ESE,120,2.0,3.0,68,0.00,,,0.00,Wunderground v.1.15,2013-05-18 16:06:00,
2013-05-18 12:11:00,79.9,68.8,30.01,South,189,1.0,4.0,69,0.00,,,0.00,Wunderground v.1.15,2013-05-18 16:11:00,
2013-05-18 12:16:00,79.9,68.4,30.00,South,174,1.0,4.0,68,0.00,,,0.00,Wunderground v.1.15,2013-05-18 16:16:00,
2013-05-18 12:21:00,80.1,68.6,30.00,West,275,1.0,4.0,68,0.00,,,0.00,Wunderground v.1.15,2013-05-18 16:21:00,
2013-05-18 12:27:00,80.1,67.7,30.00,SW,227,2.0,4.0,66,0.00,,,0.00,Wunderground v.1.15,2013-05-18 16:27:00,
2013-05-18 12:32:00,80.1,67.3,30.00,SW,220,3.0,3.0,65,0.00,,,0.00,Wunderground v.1.15,2013-05-18 16:32:00,
2013-05-18 12:37:00,80.3,68.3,30.00,SW,227,2.0,6.0,67,0.00,,,0.00,Wunderground v.1.15,2013-05-18 16:37:00,
2013-05-18 12:42:00,80.7,67.8,30.00,SE,137,2.0,2.0,65,0.00,,,0.00,Wunderground v.1.15,2013-05-18 16:42:00,
2013-05-18 12:47:00,80.7,67.8,30.00,ESE,104,2.0,5.0,65,0.00,,,0.00,Wunderground v.1.15,2013-05-18 16:47:00,
2013-05-18 12:52:00,80.9,67.1,30.00,SSW,193,2.0,6.0,63,0.00,,,0.00,Wunderground v.1.15,2013-05-18 16:52:00,
2013-05-18 12:57:00,81.2,67.9,30.00,SE,136,2.0,6.0,64,0.00,,,0.00,Wunderground v.1.15,2013-05-18 16:57:00,
2013-05-18 13:02:00,81.2,66.9,29.98,SW,232,2.0,2.0,62,0.00,,,0.00,Wunderground v.1.15,2013-05-18 17:02:00,
2013-05-18 13:08:00,81.1,66.8,29.98,SE,137,2.0,4.0,62,0.00,,,0.00,Wunderground v.1.15,2013-05-18 17:08:00,
2013-05-18 13:13:00,81.4,67.6,29.98,South,174,2.0,2.0,63,0.00,,,0.00,Wunderground v.1.15,2013-05-18 17:13:00,
2013-05-18 13:18:00,81.4,66.2,29.98,SSE,153,2.0,2.0,60,0.00,,,0.00,Wunderground v.1.15,2013-05-18 17:18:00,
2013-05-18 13:23:00,82.0,66.7,29.98,SSW,195,1.0,1.0,60,0.00,,,0.00,Wunderground v.1.15,2013-05-18 17:23:00,
2013-05-18 13:28:00,82.4,66.6,29.98,ESE,117,2.0,3.0,59,0.00,,,0.00,Wunderground v.1.15,2013-05-18 17:28:00,
2013-05-18 13:33:00,82.4,66.6,29.98,ESE,120,1.0,1.0,59,0.00,,,0.00,Wunderground v.1.15,2013-05-18 17:33:00,
2013-05-18 13:38:00,82.4,64.6,29.98,SSW,202,1.0,7.0,55,0.00,,,0.00,Wunderground v.1.15,2013-05-18 17:38:00,
2013-05-18 13:44:00,82.4,65.6,29.98,NNW,331,2.0,7.0,57,0.00,,,0.00,Wunderground v.1.15,2013-05-18 17:44:00,
2013-05-18 13:49:00,82.8,66.5,29.98,ESE,115,1.0,7.0,58,0.00,,,0.00,Wunderground v.1.15,2013-05-18 17:49:00,
2013-05-18 13:54:00,83.2,64.3,29.98,SW,215,2.0,3.0,53,0.00,,,0.00,Wunderground v.1.15,2013-05-18 17:54:00,
2013-05-18 13:59:00,83.0,63.6,29.98,SE,144,3.0,5.0,52,0.00,,,0.00,Wunderground v.1.15,2013-05-18 17:59:00,
2013-05-18 14:05:00,83.0,64.6,29.98,SSW,212,2.0,9.0,54,0.00,,,0.00,Wunderground v.1.15,2013-05-18 18:05:00,
2013-05-18 14:10:00,83.0,64.1,29.98,SW,219,2.0,9.0,53,0.00,,,0.00,Wunderground v.1.15,2013-05-18 18:10:00,
2013-05-18 14:15:00,82.6,64.3,29.97,SW,223,3.0,7.0,54,0.00,,,0.00,Wunderground v.1.15,2013-05-18 18:15:00,
2013-05-18 14:20:00,82.8,65.0,29.97,SSE,151,2.0,7.0,55,0.00,,,0.00,Wunderground v.1.15,2013-05-18 18:20:00,
2013-05-18 14:26:00,83.2,64.3,29.97,SE,144,2.0,3.0,53,0.00,,,0.00,Wunderground v.1.15,2013-05-18 18:26:00,
2013-05-18 14:31:00,83.2,63.2,29.97,ESE,110,2.0,3.0,51,0.00,,,0.00,Wunderground v.1.15,2013-05-18 18:31:00,
2013-05-18 14:36:00,83.4,64.5,29.97,SE,133,2.0,5.0,53,0.00,,,0.00,Wunderground v.1.15,2013-05-18 18:36:00,
2013-05-18 14:42:00,83.6,64.1,29.97,SSE,159,2.0,2.0,52,0.00,,,0.00,Wunderground v.1.15,2013-05-18 18:42:00,
2013-05-18 14:47:00,83.8,64.8,29.97,SSE,147,2.0,5.0,53,0.00,,,0.00,Wunderground v.1.15,2013-05-18 18:47:00,
2013-05-18 14:52:00,84.0,65.6,29.97,East,89,1.0,2.0,54,0.00,,,0.00,Wunderground v.1.15,2013-05-18 18:52:00,
2013-05-18 14:57:00,84.1,65.1,29.97,ESE,103,1.0,9.0,53,0.00,,,0.00,Wunderground v.1.15,2013-05-18 18:57:00,
2013-05-18 15:02:00,83.6,64.7,29.97,SE,131,2.0,2.0,53,0.00,,,0.00,Wunderground v.1.15,2013-05-18 19:02:00,
2013-05-18 15:08:00,83.2,65.4,29.97,WSW,241,2.0,7.0,55,0.00,,,0.00,Wunderground v.1.15,2013-05-18 19:08:00,
2013-05-18 15:13:00,82.6,66.3,29.97,South,187,2.0,2.0,58,0.00,,,0.00,Wunderground v.1.15,2013-05-18 19:13:00,
2013-05-18 15:19:00,82.0,66.7,29.96,SSW,195,2.0,6.0,60,0.00,,,0.00,Wunderground v.1.15,2013-05-18 19:19:00,
2013-05-18 15:24:00,81.6,67.3,29.96,South,174,2.0,4.0,62,0.00,,,0.00,Wunderground v.1.15,2013-05-18 19:24:00,
2013-05-18 15:29:00,81.4,66.7,29.96,East,98,2.0,4.0,61,0.00,,,0.00,Wunderground v.1.15,2013-05-18 19:29:00,
2013-05-18 15:34:00,81.2,65.5,29.96,West,259,2.0,6.0,59,0.00,,,0.00,Wunderground v.1.15,2013-05-18 19:34:00,
2013-05-18 15:39:00,81.1,65.9,29.96,East,88,2.0,6.0,60,0.00,,,0.00,Wunderground v.1.15,2013-05-18 19:39:00,
2013-05-18 15:44:00,81.1,66.4,29.95,SW,223,2.0,4.0,61,0.00,,,0.00,Wunderground v.1.15,2013-05-18 19:44:00,
2013-05-18 15:49:00,81.2,66.5,29.95,South,184,2.0,4.0,61,0.00,,,0.00,Wunderground v.1.15,2013-05-18 19:49:00,
2013-05-18 15:54:00,80.9,66.2,29.95,SW,221,2.0,5.0,61,0.00,,,0.00,Wunderground v.1.15,2013-05-18 19:54:00,
2013-05-18 15:59:00,80.3,66.1,29.95,SSE,149,2.0,5.0,62,0.00,,,0.00,Wunderground v.1.15,2013-05-18 19:59:00,
2013-05-18 16:04:00,80.3,67.0,29.95,South,186,2.0,2.0,64,0.00,,,0.00,Wunderground v.1.15,2013-05-18 20:04:00,
2013-05-18 16:10:00,80.3,67.5,29.95,SE,139,1.0,2.0,65,0.00,,,0.00,Wunderground v.1.15,2013-05-18 20:10:00,
2013-05-18 16:15:00,80.1,67.7,29.95,SE,133,1.0,2.0,66,0.00,,,0.00,Wunderground v.1.15,2013-05-18 20:15:00,
2013-05-18 16:20:00,79.9,67.1,29.95,SE,128,2.0,6.0,65,0.00,,,0.00,Wunderground v.1.15,2013-05-18 20:20:00,
2013-05-18 16:25:00,79.4,67.5,29.95,East,94,2.0,2.0,67,0.00,,,0.00,Wunderground v.1.15,2013-05-18 20:25:00,
2013-05-18 16:30:00,79.2,67.3,29.95,SE,144,2.0,4.0,67,0.00,,,0.00,Wunderground v.1.15,2013-05-18 20:30:00,
2013-05-18 16:36:00,79.4,67.0,29.95,SW,214,2.0,3.0,66,0.00,,,0.00,Wunderground v.1.15,2013-05-18 20:36:00,
2013-05-18 16:41:00,79.4,67.5,29.95,SW,214,2.0,5.0,67,0.00,,,0.00,Wunderground v.1.15,2013-05-18 20:41:00,
2013-05-18 16:46:00,79.6,67.7,29.94,SE,144,2.0,2.0,67,0.00,,,0.00,Wunderground v.1.15,2013-05-18 20:46:00,
2013-05-18 16:51:00,79.8,67.4,29.94,South,189,1.0,2.0,66,0.00,,,0.00,Wunderground v.1.15,2013-05-18 20:51:00,
2013-05-18 16:56:00,79.9,67.5,29.94,South,169,1.0,1.0,66,0.00,,,0.00,Wunderground v.1.15,2013-05-18 20:56:00,
2013-05-18 17:01:00,79.9,67.5,29.95,SE,133,1.0,2.0,66,0.00,,,0.00,Wunderground v.1.15,2013-05-18 21:01:00,
2013-05-18 17:06:00,80.3,67.5,29.95,South,181,1.0,3.0,65,0.00,,,0.00,Wunderground v.1.15,2013-05-18 21:06:00,
2013-05-18 17:11:00,80.1,66.8,29.95,SE,136,1.0,3.0,64,0.00,,,0.00,Wunderground v.1.15,2013-05-18 21:11:00,
2013-05-18 17:17:00,80.1,67.3,29.95,ESE,113,1.0,1.0,65,0.00,,,0.00,Wunderground v.1.15,2013-05-18 21:17:00,
2013-05-18 17:22:00,79.9,67.1,29.95,SE,146,1.0,7.0,65,0.00,,,0.00,Wunderground v.1.15,2013-05-18 21:22:00,
2013-05-18 17:27:00,79.4,66.6,29.95,South,181,2.0,7.0,65,0.00,,,0.00,Wunderground v.1.15,2013-05-18 21:27:00,
2013-05-18 17:33:00,78.8,66.9,29.95,SSE,157,2.0,6.0,67,0.00,,,0.00,Wunderground v.1.15,2013-05-18 21:33:00,
2013-05-18 17:38:00,78.3,66.4,29.95,ESE,108,2.0,6.0,67,0.00,,,0.00,Wunderground v.1.15,2013-05-18 21:38:00,
2013-05-18 17:43:00,78.1,67.1,29.95,ESE,113,1.0,1.0,69,0.00,,,0.00,Wunderground v.1.15,2013-05-18 21:43:00,
2013-05-18 17:49:00,77.9,66.9,29.95,ESE,123,0.0,1.0,69,0.00,,,0.00,Wunderground v.1.15,2013-05-18 21:49:00,
2013-05-18 17:54:00,77.7,67.1,29.95,SSW,210,1.0,3.0,70,0.00,,,0.00,Wunderground v.1.15,2013-05-18 21:54:00,
2013-05-18 17:59:00,77.6,67.4,29.95,SE,144,1.0,3.0,71,0.00,,,0.00,Wunderground v.1.15,2013-05-18 21:59:00,
2013-05-18 18:04:00,77.2,67.5,29.95,SSE,164,1.0,1.0,72,0.00,,,0.00,Wunderground v.1.15,2013-05-18 22:04:00,
2013-05-18 18:09:00,77.0,67.3,29.95,SE,138,0.0,1.0,72,0.00,,,0.00,Wunderground v.1.15,2013-05-18 22:09:00,
2013-05-18 18:15:00,76.8,67.1,29.95,ESE,122,1.0,3.0,72,0.00,,,0.00,Wunderground v.1.15,2013-05-18 22:15:00,
2013-05-18 18:20:00,76.7,67.4,29.95,ESE,123,0.0,3.0,73,0.00,,,0.00,Wunderground v.1.15,2013-05-18 22:20:00,
2013-05-18 18:26:00,76.5,67.2,29.95,SW,223,1.0,1.0,73,0.00,,,0.00,Wunderground v.1.15,2013-05-18 22:26:00,
2013-05-18 18:31:00,76.3,67.4,29.95,South,190,1.0,1.0,74,0.00,,,0.00,Wunderground v.1.15,2013-05-18 22:31:00,
2013-05-18 18:36:00,76.3,67.8,29.95,SSE,150,1.0,3.0,75,0.00,,,0.00,Wunderground v.1.15,2013-05-18 22:36:00,
2013-05-18 18:41:00,76.1,67.6,29.95,SE,135,1.0,3.0,75,0.00,,,0.00,Wunderground v.1.15,2013-05-18 22:41:00,
2013-05-18 18:46:00,76.1,67.6,29.96,SE,125,1.0,3.0,75,0.00,,,0.00,Wunderground v.1.15,2013-05-18 22:46:00,
2013-05-18 18:51:00,76.0,67.5,29.96,SE,127,1.0,3.0,75,0.00,,,0.00,Wunderground v.1.15,2013-05-18 22:51:00,
2013-05-18 18:57:00,76.0,67.5,29.96,SE,136,1.0,5.0,75,0.00,,,0.00,Wunderground v.1.15,2013-05-18 22:57:00,
2013-05-18 19:02:00,75.8,67.7,29.95,ESE,110,1.0,1.0,76,0.00,,,0.00,Wunderground v.1.15,2013-05-18 23:02:00,
2013-05-18 19:07:00,75.8,67.3,29.95,East,99,0.0,3.0,75,0.00,,,0.00,Wunderground v.1.15,2013-05-18 23:07:00,
2013-05-18 19:13:00,75.8,67.7,29.95,ESE,105,0.0,0.0,76,0.00,,,0.00,Wunderground v.1.15,2013-05-18 23:13:00,
2013-05-18 19:18:00,75.6,67.5,29.95,SE,126,0.0,1.0,76,0.00,,,0.00,Wunderground v.1.15,2013-05-18 23:18:00,
2013-05-18 19:23:00,75.6,67.5,29.95,SE,126,0.0,0.0,76,0.00,,,0.00,Wunderground v.1.15,2013-05-18 23:23:00,
2013-05-18 19:28:00,75.6,67.5,29.95,SE,126,0.0,0.0,76,0.00,,,0.00,Wunderground v.1.15,2013-05-18 23:28:00,
2013-05-18 19:33:00,75.4,67.3,29.97,SE,126,0.0,0.0,76,0.00,,,0.00,Wunderground v.1.15,2013-05-18 23:33:00,
2013-05-18 19:39:00,75.3,67.2,29.97,SSW,209,0.0,2.0,76,0.00,,,0.00,Wunderground v.1.15,2013-05-18 23:39:00,
2013-05-18 19:45:00,75.3,67.6,29.97,SSW,209,0.0,0.0,77,0.00,,,0.00,Wunderground v.1.15,2013-05-18 23:45:00,
2013-05-18 19:50:00,75.1,67.4,29.97,SSW,209,0.0,0.0,77,0.00,,,0.00,Wunderground v.1.15,2013-05-18 23:50:00,
2013-05-18 19:55:00,75.1,67.4,29.97,SSW,205,0.0,0.0,77,0.00,,,0.00,Wunderground v.1.15,2013-05-18 23:55:00,
2013-05-18 20:00:00,74.9,67.6,29.97,SSW,205,0.0,0.0,78,0.00,,,0.00,Wunderground v.1.15,2013-05-19 00:00:00,
2013-05-18 20:05:00,74.7,67.4,29.97,SSW,205,0.0,1.0,78,0.00,,,0.00,Wunderground v.1.15,2013-05-19 00:05:00,
2013-05-18 20:11:00,74.7,67.4,29.97,SSW,205,0.0,1.0,78,0.00,,,0.00,Wunderground v.1.15,2013-05-19 00:11:00,
2013-05-18 20:16:00,74.6,67.7,29.97,SSW,205,0.0,0.0,79,0.00,,,0.00,Wunderground v.1.15,2013-05-19 00:16:00,
2013-05-18 20:21:00,74.4,67.5,29.97,SSW,205,0.0,0.0,79,0.00,,,0.00,Wunderground v.1.15,2013-05-19 00:21:00,
2013-05-18 20:26:00,74.0,67.4,29.97,SSW,205,0.0,0.0,80,0.00,,,0.00,Wunderground v.1.15,2013-05-19 00:26:00,
2013-05-18 20:31:00,73.9,67.7,29.97,SSW,205,0.0,0.0,81,0.00,,,0.00,Wunderground v.1.15,2013-05-19 00:31:00,
2013-05-18 20:36:00,73.9,67.7,29.97,SSW,205,0.0,0.0,81,0.00,,,0.00,Wunderground v.1.15,2013-05-19 00:36:00,
2013-05-18 20:41:00,73.7,67.9,29.97,SSW,205,0.0,0.0,82,0.00,,,0.00,Wunderground v.1.15,2013-05-19 00:41:00,
2013-05-18 20:46:00,73.5,67.7,29.96,SSW,205,0.0,0.0,82,0.00,,,0.00,Wunderground v.1.15,2013-05-19 00:46:00,
2013-05-18 20:51:00,73.3,67.8,29.96,SSW,205,0.0,0.0,83,0.00,,,0.00,Wunderground v.1.15,2013-05-19 00:51:00,
2013-05-18 20:57:00,73.2,67.7,29.96,SSW,205,0.0,1.0,83,0.00,,,0.00,Wunderground v.1.15,2013-05-19 00:57:00,
2013-05-18 21:02:00,73.2,68.1,29.97,SSW,205,0.0,0.0,84,0.00,,,0.00,Wunderground v.1.15,2013-05-19 01:02:00,
2013-05-18 21:07:00,73.0,67.9,29.97,SSW,205,0.0,0.0,84,0.00,,,0.00,Wunderground v.1.15,2013-05-19 01:07:00,
2013-05-18 21:13:00,73.0,68.2,29.97,SSW,205,0.0,0.0,85,0.00,,,0.00,Wunderground v.1.15,2013-05-19 01:13:00,
2013-05-18 21:18:00,72.8,68.0,29.97,SSW,205,0.0,0.0,85,0.00,,,0.00,Wunderground v.1.15,2013-05-19 01:18:00,
2013-05-18 21:23:00,72.7,68.3,29.97,SSW,205,0.0,0.0,86,0.00,,,0.00,Wunderground v.1.15,2013-05-19 01:23:00,
2013-05-18 21:28:00,72.7,68.3,29.97,SSW,205,0.0,0.0,86,0.00,,,0.00,Wunderground v.1.15,2013-05-19 01:28:00,
2013-05-18 21:34:00,72.7,68.3,29.97,SSW,205,0.0,0.0,86,0.00,,,0.00,Wunderground v.1.15,2013-05-19 01:34:00,
2013-05-18 21:39:00,72.7,68.6,29.97,SSW,205,0.0,0.0,87,0.00,,,0.00,Wunderground v.1.15,2013-05-19 01:39:00,
2013-05-18 21:44:00,72.7,68.6,29.97,SSW,205,0.0,0.0,87,0.00,,,0.00,Wunderground v.1.15,2013-05-19 01:44:00,
2013-05-18 21:49:00,72.7,68.6,29.97,SSW,205,0.0,3.0,87,0.00,,,0.00,Wunderground v.1.15,2013-05-19 01:49:00,
2013-05-18 21:54:00,72.7,68.6,29.97,SSW,205,0.0,0.0,87,0.00,,,0.00,Wunderground v.1.15,2013-05-19 01:54:00,
2013-05-18 21:59:00,72.8,68.4,29.97,SSW,205,0.0,0.0,86,0.00,,,0.00,Wunderground v.1.15,2013-05-19 01:59:00,
2013-05-18 22:04:00,73.0,68.6,29.97,SSW,205,0.0,2.0,86,0.00,,,0.00,Wunderground v.1.15,2013-05-19 02:04:00,
2013-05-18 22:09:00,73.2,68.8,29.97,SSW,205,0.0,2.0,86,0.00,,,0.00,Wunderground v.1.15,2013-05-19 02:09:00,
2013-05-18 22:14:00,73.2,68.8,29.97,SSW,208,0.0,1.0,86,0.00,,,0.00,Wunderground v.1.15,2013-05-19 02:14:00,
2013-05-18 22:20:00,73.3,68.5,29.97,SSW,208,0.0,2.0,85,0.00,,,0.00,Wunderground v.1.15,2013-05-19 02:20:00,
2013-05-18 22:25:00,73.5,68.7,29.97,SSW,208,0.0,2.0,85,0.00,,,0.00,Wunderground v.1.15,2013-05-19 02:25:00,
2013-05-18 22:30:00,73.5,68.7,29.97,SSW,208,0.0,3.0,85,0.00,,,0.00,Wunderground v.1.15,2013-05-19 02:30:00,
2013-05-18 22:35:00,73.5,68.4,29.97,SSW,208,0.0,0.0,84,0.00,,,0.00,Wunderground v.1.15,2013-05-19 02:35:00,
2013-05-18 22:40:00,73.5,68.4,29.97,SSW,208,0.0,0.0,84,0.00,,,0.00,Wunderground v.1.15,2013-05-19 02:40:00,
2013-05-18 22:46:00,73.3,68.5,29.97,SSW,208,0.0,0.0,85,0.00,,,0.00,Wunderground v.1.15,2013-05-19 02:46:00,
2013-05-18 22:51:00,73.2,68.4,29.97,SSW,208,0.0,0.0,85,0.00,,,0.00,Wunderground v.1.15,2013-05-19 02:51:00,
2013-05-18 22:56:00,73.2,68.4,29.97,SSW,208,0.0,0.0,85,0.00,,,0.00,Wunderground v.1.15,2013-05-19 02:56:00,
2013-05-18 23:02:00,73.2,68.4,29.97,SSW,208,0.0,0.0,85,0.00,,,0.00,Wunderground v.1.15,2013-05-19 03:02:00,
2013-05-18 23:07:00,73.0,68.2,29.97,SSW,198,0.0,0.0,85,0.00,,,0.00,Wunderground v.1.15,2013-05-19 03:07:00,
2013-05-18 23:13:00,73.0,68.2,29.97,SSW,198,0.0,2.0,85,0.00,,,0.00,Wunderground v.1.15,2013-05-19 03:13:00,
2013-05-18 23:18:00,72.8,68.4,29.97,SSW,198,0.0,2.0,86,0.00,,,0.00,Wunderground v.1.15,2013-05-19 03:18:00,
2013-05-18 23:23:00,72.8,68.4,29.97,SSW,198,0.0,0.0,86,0.00,,,0.00,Wunderground v.1.15,2013-05-19 03:23:00,
2013-05-18 23:28:00,72.8,68.4,29.97,SSW,198,0.0,0.0,86,0.00,,,0.00,Wunderground v.1.15,2013-05-19 03:28:00,
2013-05-18 23:33:00,72.7,68.3,29.97,SSW,198,0.0,0.0,86,0.00,,,0.00,Wunderground v.1.15,2013-05-19 03:33:00,
2013-05-18 23:38:00,72.5,68.1,29.97,SSW,198,0.0,0.0,86,0.00,,,0.00,Wunderground v.1.15,2013-05-19 03:38:00,
2013-05-18 23:43:00,72.5,68.1,29.97,SSW,198,0.0,0.0,86,0.00,,,0.00,Wunderground v.1.15,2013-05-19 03:43:00,
2013-05-18 23:49:00,72.3,67.9,29.97,SSW,198,0.0,0.0,86,0.00,,,0.00,Wunderground v.1.15,2013-05-19 03:49:00,
2013-05-18 23:54:00,72.3,68.2,29.97,SSW,198,0.0,0.0,87,0.00,,,0.00,Wunderground v.1.15,2013-05-19 03:54:00,
2013-05-18 23:59:00,72.1,68.0,29.97,SSW,198,0.0,0.0,87,0.00,,,0.00,Wunderground v.1.15,2013-05-19 03:59:00,